Year,Month,Day,Hour,Minute,Value (Times are PST for windspeed in km/hr)
2015,12,13,00,00,23.00
2015,12,13,00,01,21.60
2015,12,13,00,02,19.30
2015,12,13,00,03,15.60
2015,12,13,00,04,23.90
2015,12,13,00,05,26.60
2015,12,13,00,06,25.50
2015,12,13,00,07,16.10
2015,12,13,00,08,21.00
2015,12,13,00,09,26.40
2015,12,13,00,10,26.00
2015,12,13,00,11,16.90
2015,12,13,00,12,27.90
2015,12,13,00,13,18.40
2015,12,13,00,14,19.90
2015,12,13,00,15,20.00
2015,12,13,00,16,25.70
2015,12,13,00,17,19.40
2015,12,13,00,18,21.60
2015,12,13,00,19,20.20
2015,12,13,00,20,14.40
2015,12,13,00,21,19.50
2015,12,13,00,22,18.50
2015,12,13,00,23,21.70
2015,12,13,00,24,25.00
2015,12,13,00,25,19.10
2015,12,13,00,26,16.70
2015,12,13,00,27,15.60
2015,12,13,00,28,18.60
2015,12,13,00,29,19.40
2015,12,13,00,30,24.90
2015,12,13,00,31,15.50
2015,12,13,00,32,11.10
2015,12,13,00,33,12.80
2015,12,13,00,34,12.00
2015,12,13,00,35,16.20
2015,12,13,00,36,11.90
2015,12,13,00,37,14.30
2015,12,13,00,38,14.00
2015,12,13,00,39,14.50
2015,12,13,00,40,20.30
2015,12,13,00,41,21.40
2015,12,13,00,42,15.60
2015,12,13,00,43,12.40
2015,12,13,00,44,14.20
2015,12,13,00,45,10.90
2015,12,13,00,46,12.30
2015,12,13,00,47,12.70
2015,12,13,00,48,11.50
2015,12,13,00,49,5.90
2015,12,13,00,50,9.70
2015,12,13,00,51,11.30
2015,12,13,00,52,9.40
2015,12,13,00,53,7.40
2015,12,13,00,54,9.20
2015,12,13,00,55,15.90
2015,12,13,00,56,15.30
2015,12,13,00,57,10.50
2015,12,13,00,58,6.70
2015,12,13,00,59,9.60
2015,12,13,01,00,11.70
2015,12,13,01,01,11.30
2015,12,13,01,02,9.00
2015,12,13,01,03,11.60
2015,12,13,01,04,19.40
2015,12,13,01,05,11.50
2015,12,13,01,06,10.20
2015,12,13,01,07,10.50
2015,12,13,01,08,16.80
2015,12,13,01,09,19.20
2015,12,13,01,10,15.20
2015,12,13,01,11,15.10
2015,12,13,01,12,10.60
2015,12,13,01,13,11.90
2015,12,13,01,14,13.70
2015,12,13,01,15,23.60
2015,12,13,01,16,22.50
2015,12,13,01,17,17.30
2015,12,13,01,18,13.50
2015,12,13,01,19,10.10
2015,12,13,01,20,11.40
2015,12,13,01,21,10.00
2015,12,13,01,22,14.30
2015,12,13,01,23,11.50
2015,12,13,01,24,9.30
2015,12,13,01,25,11.20
2015,12,13,01,26,14.20
2015,12,13,01,27,13.00
2015,12,13,01,28,15.90
2015,12,13,01,29,16.70
2015,12,13,01,30,15.30
2015,12,13,01,31,14.90
2015,12,13,01,32,19.40
2015,12,13,01,33,11.30
2015,12,13,01,34,10.60
2015,12,13,01,35,14.40
2015,12,13,01,36,15.20
2015,12,13,01,37,20.00
2015,12,13,01,38,20.20
2015,12,13,01,39,25.20
2015,12,13,01,40,13.80
2015,12,13,01,41,15.70
2015,12,13,01,42,14.90
2015,12,13,01,43,16.80
2015,12,13,01,44,15.60
2015,12,13,01,45,18.00
2015,12,13,01,46,16.60
2015,12,13,01,47,16.50
2015,12,13,01,48,18.30
2015,12,13,01,49,16.40
2015,12,13,01,50,18.60
2015,12,13,01,51,15.90
2015,12,13,01,52,13.60
2015,12,13,01,53,21.30
2015,12,13,01,54,20.60
2015,12,13,01,55,23.50
2015,12,13,01,56,23.40
2015,12,13,01,57,17.20
2015,12,13,01,58,19.00
2015,12,13,01,59,26.20
2015,12,13,02,00,15.00
2015,12,13,02,01,18.50
2015,12,13,02,02,24.70
2015,12,13,02,03,30.30
2015,12,13,02,04,18.10
2015,12,13,02,05,21.40
2015,12,13,02,06,20.10
2015,12,13,02,07,18.90
2015,12,13,02,08,18.60
2015,12,13,02,09,19.00
2015,12,13,02,10,17.40
2015,12,13,02,11,17.50
2015,12,13,02,12,16.50
2015,12,13,02,13,22.30
2015,12,13,02,14,19.40
2015,12,13,02,15,20.80
2015,12,13,02,16,13.90
2015,12,13,02,17,15.60
2015,12,13,02,18,15.30
2015,12,13,02,19,15.50
2015,12,13,02,20,15.20
2015,12,13,02,21,14.20
2015,12,13,02,22,14.40
2015,12,13,02,23,14.20
2015,12,13,02,24,8.70
2015,12,13,02,25,13.20
2015,12,13,02,26,8.50
2015,12,13,02,27,16.50
2015,12,13,02,28,9.30
2015,12,13,02,29,8.70
2015,12,13,02,30,11.20
2015,12,13,02,31,12.30
2015,12,13,02,32,11.30
2015,12,13,02,33,12.40
2015,12,13,02,34,11.30
2015,12,13,02,35,19.90
2015,12,13,02,36,19.80
2015,12,13,02,37,9.70
2015,12,13,02,38,11.70
2015,12,13,02,39,13.40
2015,12,13,02,40,7.60
2015,12,13,02,41,9.90
2015,12,13,02,42,13.20
2015,12,13,02,43,17.90
2015,12,13,02,44,16.40
2015,12,13,02,45,16.70
2015,12,13,02,46,26.20
2015,12,13,02,47,17.50
2015,12,13,02,48,19.10
2015,12,13,02,49,18.30
2015,12,13,02,50,18.90
2015,12,13,02,51,22.80
2015,12,13,02,52,20.90
2015,12,13,02,53,26.70
2015,12,13,02,54,18.10
2015,12,13,02,55,17.10
2015,12,13,02,56,22.40
2015,12,13,02,57,27.40
2015,12,13,02,58,25.80
2015,12,13,02,59,22.90
2015,12,13,03,00,18.80
2015,12,13,03,01,22.60
2015,12,13,03,02,22.70
2015,12,13,03,03,25.20
2015,12,13,03,04,17.40
2015,12,13,03,05,15.20
2015,12,13,03,06,18.00
2015,12,13,03,07,17.00
2015,12,13,03,08,19.50
2015,12,13,03,09,14.80
2015,12,13,03,10,19.00
2015,12,13,03,11,16.90
2015,12,13,03,12,21.00
2015,12,13,03,13,22.10
2015,12,13,03,14,21.90
2015,12,13,03,15,17.40
2015,12,13,03,16,23.50
2015,12,13,03,17,18.20
2015,12,13,03,18,14.30
2015,12,13,03,19,22.80
2015,12,13,03,20,17.50
2015,12,13,03,21,20.90
2015,12,13,03,22,15.00
2015,12,13,03,23,16.90
2015,12,13,03,24,27.90
2015,12,13,03,25,17.20
2015,12,13,03,26,29.90
2015,12,13,03,27,29.10
2015,12,13,03,28,18.50
2015,12,13,03,29,27.40
2015,12,13,03,30,28.30
2015,12,13,03,31,23.80
2015,12,13,03,32,17.30
2015,12,13,03,33,20.40
2015,12,13,03,34,14.50
2015,12,13,03,35,20.90
2015,12,13,03,36,23.00
2015,12,13,03,37,17.90
2015,12,13,03,38,16.00
2015,12,13,03,39,20.50
2015,12,13,03,40,22.00
2015,12,13,03,41,22.50
2015,12,13,03,42,28.10
2015,12,13,03,43,25.10
2015,12,13,03,44,18.10
2015,12,13,03,45,16.80
2015,12,13,03,46,19.20
2015,12,13,03,47,9.80
2015,12,13,03,48,19.50
2015,12,13,03,49,18.80
2015,12,13,03,50,24.20
2015,12,13,03,51,17.30
2015,12,13,03,52,18.90
2015,12,13,03,53,20.40
2015,12,13,03,54,15.40
2015,12,13,03,55,11.00
2015,12,13,03,56,10.00
2015,12,13,03,57,23.80
2015,12,13,03,58,19.90
2015,12,13,03,59,19.10
2015,12,13,04,00,13.20
2015,12,13,04,01,13.20
2015,12,13,04,02,20.30
2015,12,13,04,03,15.90
2015,12,13,04,04,19.60
2015,12,13,04,05,19.00
2015,12,13,04,06,12.70
2015,12,13,04,07,10.80
2015,12,13,04,08,17.00
2015,12,13,04,09,17.00
2015,12,13,04,10,28.50
2015,12,13,04,11,20.50
2015,12,13,04,12,18.70
2015,12,13,04,13,18.30
2015,12,13,04,14,16.00
2015,12,13,04,15,19.80
2015,12,13,04,16,13.30
2015,12,13,04,17,19.40
2015,12,13,04,18,20.90
2015,12,13,04,19,20.60
2015,12,13,04,20,14.30
2015,12,13,04,21,18.50
2015,12,13,04,22,23.00
2015,12,13,04,23,20.80
2015,12,13,04,24,22.90
2015,12,13,04,25,24.70
2015,12,13,04,26,17.20
2015,12,13,04,27,16.10
2015,12,13,04,28,15.30
2015,12,13,04,29,11.60
2015,12,13,04,30,16.10
2015,12,13,04,31,15.70
2015,12,13,04,32,22.10
2015,12,13,04,33,16.20
2015,12,13,04,34,20.30
2015,12,13,04,35,28.40
2015,12,13,04,36,23.20
2015,12,13,04,37,18.10
2015,12,13,04,38,18.80
2015,12,13,04,39,10.90
2015,12,13,04,40,15.80
2015,12,13,04,41,18.60
2015,12,13,04,42,17.40
2015,12,13,04,43,18.30
2015,12,13,04,44,21.90
2015,12,13,04,45,14.50
2015,12,13,04,46,22.30
2015,12,13,04,47,22.10
2015,12,13,04,48,18.60
2015,12,13,04,49,16.40
2015,12,13,04,50,16.50
2015,12,13,04,51,13.40
2015,12,13,04,52,16.40
2015,12,13,04,53,13.80
2015,12,13,04,54,13.20
2015,12,13,04,55,12.50
2015,12,13,04,56,18.90
2015,12,13,04,57,22.60
2015,12,13,04,58,26.90
2015,12,13,04,59,21.70
2015,12,13,05,00,17.50
2015,12,13,05,01,22.00
2015,12,13,05,02,17.60
2015,12,13,05,03,17.50
2015,12,13,05,04,18.50
2015,12,13,05,05,13.80
2015,12,13,05,06,14.80
2015,12,13,05,07,11.40
2015,12,13,05,08,16.90
2015,12,13,05,09,12.40
2015,12,13,05,10,18.40
2015,12,13,05,11,17.90
2015,12,13,05,12,20.10
2015,12,13,05,13,14.20
2015,12,13,05,14,14.70
2015,12,13,05,15,12.20
2015,12,13,05,16,12.30
2015,12,13,05,17,13.00
2015,12,13,05,18,13.50
2015,12,13,05,19,15.00
2015,12,13,05,20,13.30
2015,12,13,05,21,16.30
2015,12,13,05,22,14.00
2015,12,13,05,23,19.60
2015,12,13,05,24,14.70
2015,12,13,05,25,15.70
2015,12,13,05,26,10.60
2015,12,13,05,27,16.40
2015,12,13,05,28,17.90
2015,12,13,05,29,18.40
2015,12,13,05,30,15.10
2015,12,13,05,31,16.00
2015,12,13,05,32,11.60
2015,12,13,05,33,13.60
2015,12,13,05,34,14.00
2015,12,13,05,35,11.80
2015,12,13,05,36,14.50
2015,12,13,05,37,10.70
2015,12,13,05,38,9.40
2015,12,13,05,39,14.00
2015,12,13,05,40,10.20
2015,12,13,05,41,11.30
2015,12,13,05,42,13.50
2015,12,13,05,43,19.40
2015,12,13,05,44,18.80
2015,12,13,05,45,14.00
2015,12,13,05,46,14.50
2015,12,13,05,47,14.40
2015,12,13,05,48,13.20
2015,12,13,05,49,12.20
2015,12,13,05,50,16.00
2015,12,13,05,51,8.70
2015,12,13,05,52,16.30
2015,12,13,05,53,14.80
2015,12,13,05,54,15.00
2015,12,13,05,55,11.80
2015,12,13,05,56,11.80
2015,12,13,05,57,11.90
2015,12,13,05,58,9.60
2015,12,13,05,59,11.90
2015,12,13,06,00,9.70
2015,12,13,06,01,12.10
2015,12,13,06,02,10.80
2015,12,13,06,03,15.70
2015,12,13,06,04,25.00
2015,12,13,06,05,17.00
2015,12,13,06,06,18.00
2015,12,13,06,07,15.40
2015,12,13,06,08,18.60
2015,12,13,06,09,20.40
2015,12,13,06,10,14.60
2015,12,13,06,11,14.30
2015,12,13,06,12,15.30
2015,12,13,06,13,11.50
2015,12,13,06,14,10.80
2015,12,13,06,15,14.70
2015,12,13,06,16,15.10
2015,12,13,06,17,7.10
2015,12,13,06,18,8.90
2015,12,13,06,19,11.70
2015,12,13,06,20,8.70
2015,12,13,06,21,10.40
2015,12,13,06,22,13.10
2015,12,13,06,23,12.30
2015,12,13,06,24,11.20
2015,12,13,06,25,8.60
2015,12,13,06,26,14.60
2015,12,13,06,27,18.90
2015,12,13,06,28,15.60
2015,12,13,06,29,15.80
2015,12,13,06,30,16.80
2015,12,13,06,31,10.40
2015,12,13,06,32,8.20
2015,12,13,06,33,8.90
2015,12,13,06,34,9.20
2015,12,13,06,35,13.00
2015,12,13,06,36,8.70
2015,12,13,06,37,13.40
2015,12,13,06,38,9.70
2015,12,13,06,39,7.90
2015,12,13,06,40,9.90
2015,12,13,06,41,13.30
2015,12,13,06,42,14.90
2015,12,13,06,43,15.10
2015,12,13,06,44,16.20
2015,12,13,06,45,19.30
2015,12,13,06,46,14.90
2015,12,13,06,47,12.40
2015,12,13,06,48,13.30
2015,12,13,06,49,15.40
2015,12,13,06,50,10.90
2015,12,13,06,51,9.30
2015,12,13,06,52,13.00
2015,12,13,06,53,14.10
2015,12,13,06,54,10.60
2015,12,13,06,55,11.50
2015,12,13,06,56,13.00
2015,12,13,06,57,20.30
2015,12,13,06,58,16.00
2015,12,13,06,59,15.20
2015,12,13,07,00,11.60
2015,12,13,07,01,11.40
2015,12,13,07,02,13.90
2015,12,13,07,03,15.00
2015,12,13,07,04,18.30
2015,12,13,07,05,12.70
2015,12,13,07,06,17.00
2015,12,13,07,07,18.70
2015,12,13,07,08,12.50
2015,12,13,07,09,14.60
2015,12,13,07,10,22.80
2015,12,13,07,11,15.90
2015,12,13,07,12,18.60
2015,12,13,07,13,20.50
2015,12,13,07,14,22.70
2015,12,13,07,15,18.40
2015,12,13,07,16,16.90
2015,12,13,07,17,12.40
2015,12,13,07,18,10.50
2015,12,13,07,19,11.70
2015,12,13,07,20,16.20
2015,12,13,07,21,20.20
2015,12,13,07,22,17.80
2015,12,13,07,23,14.50
2015,12,13,07,24,10.30
2015,12,13,07,25,11.00
2015,12,13,07,26,13.10
2015,12,13,07,27,15.00
2015,12,13,07,28,9.50
2015,12,13,07,29,11.20
2015,12,13,07,30,8.40
2015,12,13,07,31,13.40
2015,12,13,07,32,18.70
2015,12,13,07,33,13.40
2015,12,13,07,34,17.60
2015,12,13,07,35,20.70
2015,12,13,07,36,14.00
2015,12,13,07,37,20.30
2015,12,13,07,38,19.10
2015,12,13,07,39,17.00
2015,12,13,07,40,18.80
2015,12,13,07,41,16.10
2015,12,13,07,42,21.60
2015,12,13,07,43,17.50
2015,12,13,07,44,12.00
2015,12,13,07,45,15.70
2015,12,13,07,46,12.40
2015,12,13,07,47,20.00
2015,12,13,07,48,15.00
2015,12,13,07,49,13.80
2015,12,13,07,50,15.80
2015,12,13,07,51,16.20
2015,12,13,07,52,19.30
2015,12,13,07,53,19.30
2015,12,13,07,54,21.30
2015,12,13,07,55,19.90
2015,12,13,07,56,19.10
2015,12,13,07,57,24.10
2015,12,13,07,58,18.90
2015,12,13,07,59,23.10
2015,12,13,08,00,13.90
2015,12,13,08,01,12.10
2015,12,13,08,02,12.60
2015,12,13,08,03,13.40
2015,12,13,08,04,15.60
2015,12,13,08,05,10.20
2015,12,13,08,06,9.10
2015,12,13,08,07,9.80
2015,12,13,08,08,5.50
2015,12,13,08,09,4.50
2015,12,13,08,10,5.30
2015,12,13,08,11,7.90
2015,12,13,08,12,5.70
2015,12,13,08,13,6.90
2015,12,13,08,14,8.20
2015,12,13,08,15,5.70
2015,12,13,08,16,7.80
2015,12,13,08,17,7.20
2015,12,13,08,18,10.00
2015,12,13,08,19,10.40
2015,12,13,08,20,10.60
2015,12,13,08,21,14.10
2015,12,13,08,22,11.30
2015,12,13,08,23,12.80
2015,12,13,08,24,8.40
2015,12,13,08,25,16.30
2015,12,13,08,26,11.80
2015,12,13,08,27,14.10
2015,12,13,08,28,13.40
2015,12,13,08,29,19.20
2015,12,13,08,30,9.00
2015,12,13,08,31,11.50
2015,12,13,08,32,11.90
2015,12,13,08,33,16.40
2015,12,13,08,34,7.90
2015,12,13,08,35,14.00
2015,12,13,08,36,15.60
2015,12,13,08,37,14.50
2015,12,13,08,38,15.50
2015,12,13,08,39,12.70
2015,12,13,08,40,12.70
2015,12,13,08,41,11.60
2015,12,13,08,42,12.50
2015,12,13,08,43,19.00
2015,12,13,08,44,19.30
2015,12,13,08,45,12.80
2015,12,13,08,46,11.70
2015,12,13,08,47,16.50
2015,12,13,08,48,13.40
2015,12,13,08,49,17.40
2015,12,13,08,50,12.20
2015,12,13,08,51,9.70
2015,12,13,08,52,10.40
2015,12,13,08,53,17.60
2015,12,13,08,54,18.50
2015,12,13,08,55,14.20
2015,12,13,08,56,14.30
2015,12,13,08,57,13.90
2015,12,13,08,58,14.20
2015,12,13,08,59,15.40
2015,12,13,09,00,13.70
2015,12,13,09,01,13.00
2015,12,13,09,02,19.20
2015,12,13,09,03,13.40
2015,12,13,09,04,12.10
2015,12,13,09,05,15.30
2015,12,13,09,06,14.40
2015,12,13,09,07,7.20
2015,12,13,09,08,6.70
2015,12,13,09,09,15.30
2015,12,13,09,10,12.90
2015,12,13,09,11,12.70
2015,12,13,09,12,16.10
2015,12,13,09,13,13.70
2015,12,13,09,14,11.50
2015,12,13,09,15,13.20
2015,12,13,09,16,19.90
2015,12,13,09,17,18.90
2015,12,13,09,18,20.30
2015,12,13,09,19,9.70
2015,12,13,09,20,8.40
2015,12,13,09,21,13.20
2015,12,13,09,22,19.00
2015,12,13,09,23,19.30
2015,12,13,09,24,18.00
2015,12,13,09,25,14.50
2015,12,13,09,26,24.80
2015,12,13,09,27,10.90
2015,12,13,09,28,15.50
2015,12,13,09,29,16.10
2015,12,13,09,30,16.40
2015,12,13,09,31,15.60
2015,12,13,09,32,11.20
2015,12,13,09,33,11.30
2015,12,13,09,34,17.10
2015,12,13,09,35,12.40
2015,12,13,09,36,16.40
2015,12,13,09,37,11.80
2015,12,13,09,38,12.90
2015,12,13,09,39,15.20
2015,12,13,09,40,11.10
2015,12,13,09,41,4.40
2015,12,13,09,42,9.30
2015,12,13,09,43,8.90
2015,12,13,09,44,4.90
2015,12,13,09,45,5.90
2015,12,13,09,46,14.00
2015,12,13,09,47,10.80
2015,12,13,09,48,10.90
2015,12,13,09,49,11.00
2015,12,13,09,50,16.30
2015,12,13,09,51,16.40
2015,12,13,09,52,13.40
2015,12,13,09,53,15.80
2015,12,13,09,54,12.80
2015,12,13,09,55,10.00
2015,12,13,09,56,14.30
2015,12,13,09,57,15.30
2015,12,13,09,58,14.00
2015,12,13,09,59,11.30
2015,12,13,10,00,10.90
2015,12,13,10,01,15.80
2015,12,13,10,02,20.60
2015,12,13,10,03,19.30
2015,12,13,10,04,15.30
2015,12,13,10,05,13.70
2015,12,13,10,06,14.20
2015,12,13,10,07,12.70
2015,12,13,10,08,9.80
2015,12,13,10,09,12.80
2015,12,13,10,10,8.50
2015,12,13,10,11,15.50
2015,12,13,10,12,14.10
2015,12,13,10,13,12.30
2015,12,13,10,14,9.10
2015,12,13,10,15,12.90
2015,12,13,10,16,8.80
2015,12,13,10,17,7.90
2015,12,13,10,18,10.10
2015,12,13,10,19,11.20
2015,12,13,10,20,14.90
2015,12,13,10,21,13.10
2015,12,13,10,22,11.70
2015,12,13,10,23,10.80
2015,12,13,10,24,14.30
2015,12,13,10,25,10.40
2015,12,13,10,26,11.50
2015,12,13,10,27,16.00
2015,12,13,10,28,23.30
2015,12,13,10,29,16.70
2015,12,13,10,30,18.40
2015,12,13,10,31,14.30
2015,12,13,10,32,9.30
2015,12,13,10,33,10.30
2015,12,13,10,34,18.50
2015,12,13,10,35,14.80
2015,12,13,10,36,10.70
2015,12,13,10,37,14.90
2015,12,13,10,38,12.50
2015,12,13,10,39,8.60
2015,12,13,10,40,15.30
2015,12,13,10,41,14.70
2015,12,13,10,42,5.00
2015,12,13,10,43,13.00
2015,12,13,10,44,14.80
2015,12,13,10,45,11.20
2015,12,13,10,46,13.50
2015,12,13,10,47,14.90
2015,12,13,10,48,7.80
2015,12,13,10,49,11.20
2015,12,13,10,50,8.50
2015,12,13,10,51,12.80
2015,12,13,10,52,12.00
2015,12,13,10,53,12.30
2015,12,13,10,54,12.50
2015,12,13,10,55,7.70
2015,12,13,10,56,7.00
2015,12,13,10,57,8.20
2015,12,13,10,58,10.40
2015,12,13,10,59,9.90
2015,12,13,11,00,11.40
2015,12,13,11,01,7.40
2015,12,13,11,02,11.20
2015,12,13,11,03,10.40
2015,12,13,11,04,11.40
2015,12,13,11,05,10.00
2015,12,13,11,06,6.00
2015,12,13,11,07,5.90
2015,12,13,11,08,6.60
2015,12,13,11,09,7.70
2015,12,13,11,10,6.90
2015,12,13,11,11,8.80
2015,12,13,11,12,11.40
2015,12,13,11,13,11.90
2015,12,13,11,14,13.10
2015,12,13,11,15,13.20
2015,12,13,11,16,16.30
2015,12,13,11,17,19.10
2015,12,13,11,18,17.60
2015,12,13,11,19,15.90
2015,12,13,11,20,14.10
2015,12,13,11,21,11.30
2015,12,13,11,22,11.80
2015,12,13,11,23,12.20
2015,12,13,11,24,11.30
2015,12,13,11,25,10.80
2015,12,13,11,26,12.50
2015,12,13,11,27,12.20
2015,12,13,11,28,10.40
2015,12,13,11,29,12.40
2015,12,13,11,30,13.20
2015,12,13,11,31,13.00
2015,12,13,11,32,12.00
2015,12,13,11,33,11.80
2015,12,13,11,34,9.30
2015,12,13,11,35,8.40
2015,12,13,11,36,8.80
2015,12,13,11,37,9.10
2015,12,13,11,38,9.10
2015,12,13,11,39,8.80
2015,12,13,11,40,9.10
2015,12,13,11,41,8.20
2015,12,13,11,42,9.10
2015,12,13,11,43,8.30
2015,12,13,11,44,10.60
2015,12,13,11,45,7.60
2015,12,13,11,46,10.70
2015,12,13,11,47,9.00
2015,12,13,11,48,9.80
2015,12,13,11,49,11.10
2015,12,13,11,50,9.70
2015,12,13,11,51,15.00
2015,12,13,11,52,11.70
2015,12,13,11,53,7.90
2015,12,13,11,54,10.10
2015,12,13,11,55,9.10
2015,12,13,11,56,10.30
2015,12,13,11,57,9.20
2015,12,13,11,58,7.30
2015,12,13,11,59,7.20
2015,12,13,12,00,7.70
2015,12,13,12,01,6.70
2015,12,13,12,02,7.40
2015,12,13,12,03,6.10
2015,12,13,12,04,7.80
2015,12,13,12,05,6.80
2015,12,13,12,06,5.60
2015,12,13,12,07,5.20
2015,12,13,12,08,6.70
2015,12,13,12,09,8.10
2015,12,13,12,10,9.40
2015,12,13,12,11,7.80
2015,12,13,12,12,8.10
2015,12,13,12,13,8.00
2015,12,13,12,14,8.30
2015,12,13,12,15,8.90
2015,12,13,12,16,7.80
2015,12,13,12,17,7.40
2015,12,13,12,18,5.90
2015,12,13,12,19,4.80
2015,12,13,12,20,4.50
2015,12,13,12,21,4.00
2015,12,13,12,22,5.00
2015,12,13,12,23,6.50
2015,12,13,12,24,4.90
2015,12,13,12,25,6.60
2015,12,13,12,26,4.80
2015,12,13,12,27,2.20
2015,12,13,12,28,3.60
2015,12,13,12,29,3.70
2015,12,13,12,30,3.50
2015,12,13,12,31,3.50
2015,12,13,12,32,5.60
2015,12,13,12,33,4.20
2015,12,13,12,34,5.10
2015,12,13,12,35,4.50
2015,12,13,12,36,6.30
2015,12,13,12,37,5.60
2015,12,13,12,38,5.70
2015,12,13,12,39,5.70
2015,12,13,12,40,6.00
2015,12,13,12,41,5.40
2015,12,13,12,42,4.20
2015,12,13,12,43,4.00
2015,12,13,12,44,3.20
2015,12,13,12,45,4.20
2015,12,13,12,46,3.10
2015,12,13,12,47,5.10
2015,12,13,12,48,2.40
2015,12,13,12,49,3.50
2015,12,13,12,50,2.90
2015,12,13,12,51,5.40
2015,12,13,12,52,4.00
2015,12,13,12,53,5.60
2015,12,13,12,54,6.40
2015,12,13,12,55,4.00
2015,12,13,12,56,3.10
2015,12,13,12,57,5.60
2015,12,13,12,58,4.10
2015,12,13,12,59,4.10
2015,12,13,13,00,6.40
2015,12,13,13,01,5.90
2015,12,13,13,02,6.40
2015,12,13,13,03,7.30
2015,12,13,13,04,8.40
2015,12,13,13,05,6.60
2015,12,13,13,06,7.70
2015,12,13,13,07,7.80
2015,12,13,13,08,6.80
2015,12,13,13,09,5.10
2015,12,13,13,10,7.10
2015,12,13,13,11,5.20
2015,12,13,13,12,6.30
2015,12,13,13,13,5.40
2015,12,13,13,14,5.90
2015,12,13,13,15,4.20
2015,12,13,13,16,4.50
2015,12,13,13,17,3.20
2015,12,13,13,18,2.80
2015,12,13,13,19,1.70
2015,12,13,13,20,1.70
2015,12,13,13,21,2.40
2015,12,13,13,22,4.30
2015,12,13,13,23,2.80
2015,12,13,13,24,2.60
2015,12,13,13,25,1.90
2015,12,13,13,26,0.90
2015,12,13,13,27,1.10
2015,12,13,13,28,1.70
2015,12,13,13,29,2.20
2015,12,13,13,30,2.30
2015,12,13,13,31,1.20
2015,12,13,13,32,3.00
2015,12,13,13,33,3.70
2015,12,13,13,34,2.40
2015,12,13,13,35,1.20
2015,12,13,13,36,1.60
2015,12,13,13,37,2.40
2015,12,13,13,38,4.40
2015,12,13,13,39,7.60
2015,12,13,13,40,5.30
2015,12,13,13,41,4.10
2015,12,13,13,42,3.40
2015,12,13,13,43,4.70
2015,12,13,13,44,3.40
2015,12,13,13,45,2.10
2015,12,13,13,46,3.00
2015,12,13,13,47,6.60
2015,12,13,13,48,4.40
2015,12,13,13,49,7.60
2015,12,13,13,50,7.10
2015,12,13,13,51,5.10
2015,12,13,13,52,4.30
2015,12,13,13,53,3.40
2015,12,13,13,54,3.60
2015,12,13,13,55,2.70
2015,12,13,13,56,2.30
2015,12,13,13,57,1.70
2015,12,13,13,58,2.20
2015,12,13,13,59,1.50
2015,12,13,14,00,1.70
2015,12,13,14,01,2.20
2015,12,13,14,02,1.90
2015,12,13,14,03,2.10
2015,12,13,14,04,2.50
2015,12,13,14,05,2.10
2015,12,13,14,06,2.80
2015,12,13,14,07,2.60
2015,12,13,14,08,2.70
2015,12,13,14,09,2.10
2015,12,13,14,10,4.80
2015,12,13,14,11,3.80
2015,12,13,14,12,3.20
2015,12,13,14,13,3.00
2015,12,13,14,14,2.70
2015,12,13,14,15,2.10
2015,12,13,14,16,2.40
2015,12,13,14,17,2.20
2015,12,13,14,18,1.80
2015,12,13,14,19,1.70
2015,12,13,14,20,0.70
2015,12,13,14,21,1.80
2015,12,13,14,22,2.40
2015,12,13,14,23,2.80
2015,12,13,14,24,2.60
2015,12,13,14,25,3.00
2015,12,13,14,26,3.00
2015,12,13,14,27,3.10
2015,12,13,14,28,3.50
2015,12,13,14,29,4.40
2015,12,13,14,30,3.50
2015,12,13,14,31,2.70
2015,12,13,14,32,3.00
2015,12,13,14,33,3.80
2015,12,13,14,34,2.90
2015,12,13,14,35,3.60
2015,12,13,14,36,3.70
2015,12,13,14,37,5.50
2015,12,13,14,38,4.70
2015,12,13,14,39,3.80
2015,12,13,14,40,4.30
2015,12,13,14,41,3.80
2015,12,13,14,42,4.30
2015,12,13,14,43,4.00
2015,12,13,14,44,3.50
2015,12,13,14,45,2.80
2015,12,13,14,46,2.40
2015,12,13,14,47,1.80
2015,12,13,14,48,2.90
2015,12,13,14,49,2.20
2015,12,13,14,50,1.10
2015,12,13,14,51,1.90
2015,12,13,14,52,4.30
2015,12,13,14,53,2.90
2015,12,13,14,54,4.40
2015,12,13,14,55,4.20
2015,12,13,14,56,3.70
2015,12,13,14,57,4.20
2015,12,13,14,58,7.40
2015,12,13,14,59,5.60
2015,12,13,15,00,4.40
2015,12,13,15,01,7.90
2015,12,13,15,02,4.40
2015,12,13,15,03,6.10
2015,12,13,15,04,4.90
2015,12,13,15,05,4.60
2015,12,13,15,06,3.50
2015,12,13,15,07,6.00
2015,12,13,15,08,5.20
2015,12,13,15,09,9.20
2015,12,13,15,10,4.80
2015,12,13,15,11,7.40
2015,12,13,15,12,7.70
2015,12,13,15,13,7.90
2015,12,13,15,14,6.30
2015,12,13,15,15,7.20
2015,12,13,15,16,6.10
2015,12,13,15,17,5.10
2015,12,13,15,18,6.40
2015,12,13,15,19,6.60
2015,12,13,15,20,7.30
2015,12,13,15,21,5.40
2015,12,13,15,22,5.80
2015,12,13,15,23,3.80
2015,12,13,15,24,6.30
2015,12,13,15,25,6.30
2015,12,13,15,26,7.20
2015,12,13,15,27,10.20
2015,12,13,15,28,8.70
2015,12,13,15,29,7.20
2015,12,13,15,30,5.40
2015,12,13,15,31,5.50
2015,12,13,15,32,4.30
2015,12,13,15,33,5.30
2015,12,13,15,34,3.70
2015,12,13,15,35,4.90
2015,12,13,15,36,4.10
2015,12,13,15,37,3.60
2015,12,13,15,38,2.40
2015,12,13,15,39,3.20
2015,12,13,15,40,5.50
2015,12,13,15,41,4.70
2015,12,13,15,42,3.50
2015,12,13,15,43,7.30
2015,12,13,15,44,6.50
2015,12,13,15,45,5.60
2015,12,13,15,46,5.10
2015,12,13,15,47,5.60
2015,12,13,15,48,5.90
2015,12,13,15,49,3.70
2015,12,13,15,50,4.20
2015,12,13,15,51,4.10
2015,12,13,15,52,4.30
2015,12,13,15,53,7.00
2015,12,13,15,54,6.30
2015,12,13,15,55,5.80
2015,12,13,15,56,6.70
2015,12,13,15,57,8.40
2015,12,13,15,58,7.90
2015,12,13,15,59,9.10
2015,12,13,16,00,6.90
2015,12,13,16,01,6.20
2015,12,13,16,02,4.80
2015,12,13,16,03,6.80
2015,12,13,16,04,15.00
2015,12,13,16,05,12.40
2015,12,13,16,06,9.70
2015,12,13,16,07,11.00
2015,12,13,16,08,10.90
2015,12,13,16,09,8.90
2015,12,13,16,10,13.70
2015,12,13,16,11,12.80
2015,12,13,16,12,9.80
2015,12,13,16,13,7.60
2015,12,13,16,14,7.60
2015,12,13,16,15,6.10
2015,12,13,16,16,4.90
2015,12,13,16,17,2.90
2015,12,13,16,18,5.20
2015,12,13,16,19,4.40
2015,12,13,16,20,5.30
2015,12,13,16,21,6.80
2015,12,13,16,22,6.20
2015,12,13,16,23,6.40
2015,12,13,16,24,6.10
2015,12,13,16,25,6.40
2015,12,13,16,26,5.60
2015,12,13,16,27,5.90
2015,12,13,16,28,4.40
2015,12,13,16,29,4.50
2015,12,13,16,30,4.50
2015,12,13,16,31,4.00
2015,12,13,16,32,4.50
2015,12,13,16,33,4.90
2015,12,13,16,34,4.50
2015,12,13,16,35,5.10
2015,12,13,16,36,3.30
2015,12,13,16,37,3.50
2015,12,13,16,38,3.70
2015,12,13,16,39,3.30
2015,12,13,16,40,2.00
2015,12,13,16,41,1.90
2015,12,13,16,42,1.80
2015,12,13,16,43,2.30
2015,12,13,16,44,2.90
2015,12,13,16,45,3.30
2015,12,13,16,46,3.00
2015,12,13,16,47,3.70
2015,12,13,16,48,3.90
2015,12,13,16,49,5.00
2015,12,13,16,50,6.20
2015,12,13,16,51,7.30
2015,12,13,16,52,7.40
2015,12,13,16,53,6.40
2015,12,13,16,54,7.90
2015,12,13,16,55,6.40
2015,12,13,16,56,4.80
2015,12,13,16,57,6.10
2015,12,13,16,58,5.90
2015,12,13,16,59,3.90
2015,12,13,17,00,4.90
2015,12,13,17,01,4.30
2015,12,13,17,02,3.90
2015,12,13,17,03,6.40
2015,12,13,17,04,3.90
2015,12,13,17,05,4.90
2015,12,13,17,06,6.40
2015,12,13,17,07,4.80
2015,12,13,17,08,3.70
2015,12,13,17,09,5.20
2015,12,13,17,10,6.50
2015,12,13,17,11,4.30
2015,12,13,17,12,4.90
2015,12,13,17,13,5.90
2015,12,13,17,14,7.40
2015,12,13,17,15,5.80
2015,12,13,17,16,5.50
2015,12,13,17,17,4.50
2015,12,13,17,18,5.00
2015,12,13,17,19,6.10
2015,12,13,17,20,5.40
2015,12,13,17,21,5.40
2015,12,13,17,22,6.40
2015,12,13,17,23,5.30
2015,12,13,17,24,4.50
2015,12,13,17,25,4.00
2015,12,13,17,26,2.70
2015,12,13,17,27,2.80
2015,12,13,17,28,4.90
2015,12,13,17,29,6.10
2015,12,13,17,30,6.00
2015,12,13,17,31,5.40
2015,12,13,17,32,5.40
2015,12,13,17,33,4.60
2015,12,13,17,34,3.70
2015,12,13,17,35,3.10
2015,12,13,17,36,2.30
2015,12,13,17,37,2.50
2015,12,13,17,38,1.20